This is the latest recevied weather packets stored in our database for station/object XE1GMR. If no packets are shown the sender has not sent any weather packets the latest 10 day(s).
| Time | Temp. | Humidity | Pressure | Rain* | Wind** | Luminosity | Snow |
|---|---|---|---|---|---|---|---|
| 1777846013 | 26.67° C | 43% | 1120.5 hPa | 0 mm | - | 126 W/m² | - |
| 1777845709 | 26.11° C | 44% | 1120.4 hPa | 0 mm | - | 112 W/m² | - |
| 1777845407 | 26.67° C | 44% | 1120.4 hPa | 0 mm | - | 98 W/m² | - |
| 1777845103 | 26.67° C | 44% | 1120.4 hPa | 0 mm | - | 125 W/m² | - |
| 1777844802 | 27.22° C | 42% | 1120.7 hPa | 0 mm | - | 180 W/m² | - |
| 1777844498 | 27.78° C | 43% | 1120.5 hPa | 0 mm | - | 170 W/m² | - |
| 1777844192 | 27.78° C | 42% | 1120.5 hPa | 0 mm | - | 220 W/m² | - |
| 1777843888 | 27.78° C | 41% | 1120.5 hPa | 0 mm | - | 497 W/m² | - |
| 1777843585 | 28.33° C | 41% | 1120.8 hPa | 0 mm | - | 501 W/m² | - |
| 1777843283 | 27.78° C | 41% | 1120.5 hPa | 0 mm | - | 507 W/m² | - |
| 1777842980 | 28.33° C | 42% | 1120.8 hPa | 0 mm | - | 484 W/m² | - |
| 1777842676 | 27.78° C | 43% | 1120.8 hPa | 0 mm | - | 539 W/m² | - |
| 1777842372 | 27.78° C | 42% | 1121.2 hPa | 0 mm | - | 610 W/m² | - |
| 1777842069 | 27.78° C | 42% | 1121.2 hPa | 0 mm | - | 540 W/m² | - |
| 1777841765 | 27.78° C | 42% | 1121.1 hPa | 0 mm | - | 333 W/m² | - |
| 1777841461 | 27.22° C | 42% | 1121.3 hPa | 0 mm | - | 472 W/m² | - |
| 1777841158 | 27.78° C | 42% | 1121.3 hPa | 0 mm | - | 595 W/m² | - |
| 1777840855 | 28.33° C | 42% | 1121.1 hPa | 0 mm | - | 622 W/m² | - |
| 1777840552 | 27.22° C | 44% | 1121.5 hPa | 0 mm | - | 623 W/m² | - |
| 1777840249 | 26.67° C | 45% | 1121.7 hPa | 0 mm | - | 485 W/m² | - |
| 1777839947 | 26.67° C | 45% | 1121.9 hPa | 0 mm | - | 632 W/m² | - |
| 1777839645 | 26.11° C | 46% | 1121.9 hPa | 0 mm | - | 720 W/m² | - |
| 1777839343 | 25.56° C | 47% | 1121.9 hPa | 0 mm | - | 474 W/m² | - |
| 1777839040 | 25.56° C | 48% | 1122 hPa | 0 mm | - | 250 W/m² | - |
| 1777838736 | 25.56° C | 48% | 1122.1 hPa | 0 mm | - | 210 W/m² | - |
* Rain latest hour (hover to see other rain measurements)
** Current wind speed in m/s (hover to see current wind gust speed)